Date String (YYYY-MM-DD hh:mm:ss) UTC,Instrument flags,Ambient pressure (hPa),Sample flow (lpm),Bypass flow (lpm),Sample temperature (°C),Ambient temperature (°C),ASC tube jacket temperature (°C),LED temperature (°C),Box temperature (°C),Sample RH (%),Span deviation,Mass concentration (μg/m³),Mass concentration (μg/m³),Mass concentration (μg/m³)
DateTimeUTC,F1_M11,P_M11,Q1_M11,Q2_M11,T1_M11,T2_M11,T3_M11,T4_M11,T5_M11,U1_M11,ZSPAN_M11,X0_M11,X2_M11,X1_M11
2022-09-21 22:00:00,,0833.3,5.00,0.00,30.5,28.9,00.0,39.3,32.3,27.5,-000.8,0015.29,0009.39,0008.19
2022-09-21 22:01:00,,0833.4,5.00,0.00,30.5,28.8,00.0,39.3,32.2,27.3,-000.9,0015.12,0009.34,0008.15
2022-09-21 22:02:00,,0833.4,4.99,0.00,30.5,28.8,00.0,39.3,32.2,27.2,-000.8,0014.95,0009.32,0008.12
2022-09-21 22:03:00,,0833.4,5.00,0.00,30.5,28.8,00.0,39.3,32.3,27.2,-001.4,0015.01,0009.33,0008.11
2022-09-21 22:04:00,,0833.4,5.01,0.00,30.5,28.8,00.0,39.3,32.2,27.2,-001.2,0014.42,0009.26,0008.06
2022-09-21 22:05:00,,0833.3,4.99,0.00,30.5,28.8,00.0,39.3,32.2,27.2,-001.2,0014.33,0009.17,0008.03
2022-09-21 22:06:00,,0833.3,5.00,0.00,30.5,28.8,00.0,39.3,32.2,27.3,-001.0,0014.39,0009.12,0008.00
2022-09-21 22:07:00,,0833.3,5.01,0.00,30.5,28.9,00.0,39.3,32.3,27.3,-001.0,0014.38,0009.02,0007.95
2022-09-21 22:08:00,,0833.3,4.99,0.00,30.5,28.9,00.0,39.3,32.3,27.4,-000.7,0014.26,0008.97,0007.91
2022-09-21 22:09:00,,0833.2,5.01,0.00,30.5,28.9,00.0,39.3,32.3,27.5,-000.7,0014.16,0008.96,0007.91
2022-09-21 22:10:00,,0833.2,4.99,0.00,30.5,28.8,00.0,39.3,32.2,27.4,-000.5,0013.92,0008.91,0007.90
2022-09-21 22:11:00,,0833.2,5.01,0.00,30.4,28.8,00.0,39.2,32.2,27.4,-000.6,0013.96,0008.93,0007.88
2022-09-21 22:12:00,,0833.2,4.99,0.00,30.4,28.8,00.0,39.2,32.2,27.5,-000.8,0014.04,0008.94,0007.88
2022-09-21 22:13:00,,0833.2,5.00,0.00,30.4,28.8,00.0,39.2,32.2,27.5,-000.8,0014.04,0008.94,0007.87
2022-09-21 22:14:00,,0833.1,5.00,0.00,30.4,28.9,00.0,39.2,32.2,27.4,-000.7,0013.89,0008.88,0007.85
2022-09-21 22:15:00,,0833.2,4.99,0.00,30.4,28.9,00.0,39.2,32.2,27.4,-001.1,0013.79,0008.87,0007.86
2022-09-21 22:16:00,,0833.2,5.00,0.00,30.4,28.9,00.0,39.2,32.2,27.5,-001.3,0014.16,0008.94,0007.89
2022-09-21 22:17:00,,0833.2,4.99,0.00,30.5,28.9,00.0,39.2,32.3,27.5,-001.5,0014.40,0008.94,0007.89
2022-09-21 22:18:00,,0833.2,5.00,0.00,30.5,29.0,00.0,39.2,32.3,27.5,-001.4,0014.57,0008.96,0007.91
2022-09-21 22:19:00,,0833.2,4.98,0.00,30.5,28.9,00.0,39.2,32.3,27.5,-001.5,0014.74,0008.99,0007.94
2022-09-21 22:20:00,,0833.2,5.00,0.00,30.5,28.9,00.0,39.2,32.2,27.5,-001.4,0014.70,0008.94,0007.91
2022-09-21 22:21:00,,0833.1,5.00,0.00,30.5,28.9,00.0,39.2,32.2,27.5,-001.5,0014.72,0008.92,0007.86
2022-09-21 22:22:00,,0833.1,5.01,0.00,30.4,28.8,00.0,39.2,32.2,27.4,-001.6,0015.37,0008.81,0007.79
2022-09-21 22:23:00,,0833.1,4.99,0.00,30.4,28.8,00.0,39.2,32.2,27.4,-001.6,0015.40,0008.76,0007.73
2022-09-21 22:24:00,,0833.1,5.00,0.00,30.4,28.7,00.0,39.2,32.2,27.5,-001.8,0015.69,0008.70,0007.68
2022-09-21 22:25:00,,0833.0,4.99,0.00,30.4,28.7,00.0,39.2,32.2,27.5,-001.6,0015.59,0008.61,0007.61
2022-09-21 22:26:00,,0833.0,5.01,0.00,30.4,28.7,00.0,39.2,32.2,27.6,-001.4,0015.59,0008.55,0007.56
2022-09-21 22:27:00,,0833.0,4.99,0.00,30.4,28.8,00.0,39.2,32.2,28.0,-001.0,0015.21,0008.44,0007.47
2022-09-21 22:28:00,,0833.0,5.00,0.00,30.4,28.8,00.0,39.2,32.2,28.4,-000.6,0014.67,0008.33,0007.39
2022-09-21 22:29:00,,0833.1,5.00,0.00,30.4,28.8,00.0,39.2,32.2,27.9,-000.8,0014.08,0008.24,0007.31
2022-09-21 22:30:00,,0833.0,5.01,0.00,30.4,28.9,00.0,39.2,32.2,27.6,-000.9,0013.85,0008.15,0007.21
2022-09-21 22:31:00,,0833.1,4.99,0.00,30.4,28.9,00.0,39.2,32.2,27.6,-001.1,0013.56,0008.05,0007.16
2022-09-21 22:32:00,,0833.0,5.01,0.00,30.4,28.9,00.0,39.2,32.2,27.5,-001.1,0013.32,0007.95,0007.12
2022-09-21 22:33:00,,0833.0,4.98,0.00,30.4,29.0,00.0,39.2,32.2,27.5,-001.2,0012.42,0007.93,0007.11
2022-09-21 22:34:00,,0833.1,5.01,0.00,30.4,28.9,00.0,39.2,32.3,27.5,-001.5,0012.13,0007.89,0007.10
2022-09-21 22:35:00,,0833.1,4.99,0.00,30.4,28.9,00.0,39.2,32.3,27.4,-001.8,0011.64,0007.82,0007.06
2022-09-21 22:36:00,,0833.1,5.01,0.00,30.4,28.9,00.0,39.2,32.3,27.4,-002.2,0011.60,0007.79,0007.04
2022-09-21 22:37:00,,0833.2,4.99,0.00,30.5,28.9,00.0,39.2,32.3,27.4,-002.1,0011.62,0007.77,0007.00
2022-09-21 22:38:00,,0833.2,5.01,0.00,30.5,28.9,00.0,39.2,32.2,27.4,-002.3,0011.90,0007.71,0006.96
2022-09-21 22:39:00,,0833.1,5.00,0.00,30.5,28.9,00.0,39.2,32.3,27.5,-002.6,0012.03,0007.64,0006.92
2022-09-21 22:40:00,,0833.2,5.00,0.00,30.5,28.9,00.0,39.2,32.3,27.4,-002.9,0012.04,0007.63,0006.89
2022-09-21 22:41:00,,0833.2,4.99,0.00,30.5,28.9,00.0,39.2,32.3,27.4,-002.9,0011.93,0007.56,0006.87
2022-09-21 22:42:00,,0833.1,4.99,0.00,30.5,29.0,00.0,39.2,32.3,27.4,-003.0,0011.89,0007.52,0006.85
2022-09-21 22:43:00,,0833.2,5.00,0.00,30.5,28.9,00.0,39.2,32.3,27.4,-002.9,0011.89,0007.50,0006.84
2022-09-21 22:44:00,,0833.1,4.99,0.00,30.5,28.9,00.0,39.2,32.3,27.5,-002.6,0011.82,0007.46,0006.82
2022-09-21 22:45:00,,0833.1,5.01,0.00,30.5,28.9,00.0,39.2,32.3,27.5,-002.1,0011.72,0007.43,0006.81
2022-09-21 22:46:00,,0833.1,5.00,0.00,30.5,28.9,00.0,39.2,32.3,27.5,-001.9,0011.70,0007.45,0006.83
2022-09-21 22:47:00,,0833.1,4.99,0.00,30.5,28.9,00.0,39.2,32.3,27.4,-001.7,0012.13,0007.49,0006.86
2022-09-21 22:48:00,,0833.0,5.00,0.00,30.5,28.9,00.0,39.2,32.3,27.4,-001.8,0012.09,0007.47,0006.87
2022-09-21 22:49:00,,0833.1,5.00,0.00,30.5,28.9,00.0,39.2,32.3,27.3,-001.8,0011.72,0007.52,0006.92
2022-09-21 22:50:00,,0833.1,4.99,0.00,30.5,28.9,00.0,39.2,32.3,27.3,-001.7,0011.47,0007.60,0006.96
2022-09-21 22:51:00,,0833.1,5.01,0.00,30.5,28.9,00.0,39.2,32.3,27.3,-001.4,0011.50,0007.63,0007.01
2022-09-21 22:52:00,,0833.1,4.99,0.00,30.5,28.9,00.0,39.2,32.3,27.4,-001.5,0011.64,0007.73,0007.06
2022-09-21 22:53:00,,0833.1,5.01,0.00,30.5,28.9,00.0,39.2,32.3,27.4,-001.2,0011.69,0007.79,0007.09
2022-09-21 22:54:00,,0833.1,4.99,0.00,30.5,28.9,00.0,39.2,32.3,27.3,-001.1,0011.77,0007.84,0007.11
2022-09-21 22:55:00,,0833.1,5.01,0.00,30.5,28.9,00.0,39.2,32.2,27.3,-001.2,0011.96,0007.91,0007.14
2022-09-21 22:56:00,,0833.0,4.99,0.00,30.4,28.9,00.0,39.2,32.2,27.3,-000.9,0012.01,0007.96,0007.18
2022-09-21 22:57:00,,0833.0,5.01,0.00,30.4,28.8,00.0,39.2,32.2,27.4,-000.7,0012.34,0008.04,0007.21
2022-09-21 22:58:00,,0833.0,4.99,0.00,30.4,28.9,00.0,39.2,32.2,27.4,-000.5,0012.69,0008.04,0007.22
2022-09-21 22:59:00,,0833.0,5.01,0.00,30.4,28.9,00.0,39.2,32.3,27.3,-000.5,0012.62,0008.08,0007.23
